TimeEDT,TemperatureF,Dew PointF,Humidity,Sea Level PressureIn,VisibilityMPH,Wind Direction,Wind SpeedMPH,Gust SpeedMPH,PrecipitationIn,Events,Conditions,WindDirDegrees,DateUTC
12:15 AM,53.6,51.8,94,29.68,2.5,NE,21.9,34.5,N/A,,Clear,50,2012-10-29 04:15:00
12:35 AM,53.6,51.8,94,29.68,10.0,ENE,21.9,34.5,N/A,,Clear,60,2012-10-29 04:35:00
12:55 AM,53.6,51.8,94,29.68,4.0,ENE,19.6,28.8,N/A,,Clear,60,2012-10-29 04:55:00
1:15 AM,53.6,51.8,94,29.66,1.5,ENE,24.2,32.2,N/A,,Clear,60,2012-10-29 05:15:00
1:35 AM,53.6,53.6,100,29.65,3.0,NE,23.0,29.9,N/A,,Clear,50,2012-10-29 05:35:00
1:55 AM,53.6,53.6,100,29.64,2.5,NE,25.3,31.1,N/A,,Clear,50,2012-10-29 05:55:00
2:15 AM,53.6,53.6,100,29.63,1.8,NE,23.0,35.7,N/A,,Clear,50,2012-10-29 06:15:00
2:35 AM,53.6,53.6,100,29.62,1.5,ENE,21.9,32.2,N/A,,Clear,60,2012-10-29 06:35:00
2:55 AM,53.6,53.6,100,29.61,1.5,NE,20.7,32.2,N/A,,Clear,50,2012-10-29 06:55:00
3:15 AM,53.6,53.6,100,29.60,1.5,ENE,23.0,29.9,N/A,,Clear,60,2012-10-29 07:15:00
3:35 AM,53.6,53.6,100,29.58,2.0,NE,23.0,33.4,N/A,,Clear,50,2012-10-29 07:35:00
3:55 AM,53.6,53.6,100,29.57,1.5,NE,23.0,35.7,N/A,,Clear,50,2012-10-29 07:55:00
4:15 AM,53.6,53.6,100,29.56,1.5,NE,25.3,32.2,N/A,,Clear,50,2012-10-29 08:15:00
4:35 AM,53.6,53.6,100,29.55,1.5,NE,25.3,34.5,N/A,,Clear,50,2012-10-29 08:35:00
4:55 AM,53.6,53.6,100,29.55,1.5,NE,25.3,38.0,N/A,,Clear,50,2012-10-29 08:55:00
5:15 AM,55.4,53.6,94,29.53,1.2,NE,24.2,38.0,N/A,,Clear,50,2012-10-29 09:15:00
5:35 AM,55.4,53.6,94,29.52,1.5,NE,25.3,34.5,N/A,,Clear,50,2012-10-29 09:35:00
5:55 AM,55.4,53.6,94,29.51,1.8,ENE,24.2,41.4,N/A,,Clear,60,2012-10-29 09:55:00
6:15 AM,55.4,53.6,94,29.51,1.2,ENE,25.3,33.4,N/A,,Clear,60,2012-10-29 10:15:00
6:35 AM,55.4,53.6,94,29.50,1.2,ENE,24.2,36.8,N/A,,Clear,60,2012-10-29 10:35:00
6:55 AM,55.4,55.4,100,29.50,1.5,ENE,25.3,38.0,N/A,,Clear,60,2012-10-29 10:55:00
7:15 AM,55.4,55.4,100,29.49,1.2,ENE,25.3,38.0,N/A,,Clear,60,2012-10-29 11:15:00
7:35 AM,55.4,55.4,100,29.48,1.5,ENE,23.0,42.6,N/A,,Clear,60,2012-10-29 11:35:00
7:55 AM,55.4,55.4,100,29.47,1.2,ENE,27.6,36.8,N/A,Rain,Light Rain,60,2012-10-29 11:55:00
8:15 AM,55.4,55.4,100,29.46,1.2,ENE,23.0,43.7,N/A,,Clear,60,2012-10-29 12:15:00
8:35 AM,57.2,55.4,94,29.46,1.5,ENE,27.6,38.0,N/A,,Clear,60,2012-10-29 12:35:00
8:55 AM,57.2,55.4,94,29.45,1.2,ENE,26.5,34.5,N/A,,Clear,60,2012-10-29 12:55:00
9:15 AM,57.2,55.4,94,29.44,1.5,ENE,28.8,43.7,N/A,,Clear,60,2012-10-29 13:15:00
9:35 AM,57.2,57.2,100,29.42,2.0,NE,29.9,39.1,N/A,,Clear,50,2012-10-29 13:35:00
9:55 AM,57.2,57.2,100,29.40,1.8,ENE,29.9,43.7,N/A,,Clear,70,2012-10-29 13:55:00
10:15 AM,57.2,57.2,100,29.39,2.5,ENE,24.2,39.1,N/A,,Clear,60,2012-10-29 14:15:00
10:35 AM,59.0,57.2,94,29.37,2.5,ENE,29.9,42.6,N/A,,Clear,60,2012-10-29 14:35:00
10:55 AM,59.0,57.2,94,29.35,3.0,ENE,28.8,43.7,N/A,,Clear,70,2012-10-29 14:55:00
11:15 AM,59.0,57.2,94,29.33,5.0,ENE,25.3,46.0,N/A,,Clear,70,2012-10-29 15:15:00
11:35 AM,59.0,57.2,94,29.31,5.0,ENE,31.1,48.3,N/A,,Clear,70,2012-10-29 15:35:00
11:55 AM,60.8,57.2,88,29.28,3.0,ENE,35.7,55.2,N/A,Rain,Light Rain,70,2012-10-29 15:55:00
12:15 PM,59.0,57.2,94,29.27,1.0,ENE,26.5,44.9,N/A,,Clear,70,2012-10-29 16:15:00
12:35 PM,59.0,59.0,100,29.25,1.5,ENE,29.9,40.3,N/A,,Clear,60,2012-10-29 16:35:00
12:55 PM,59.0,59.0,100,29.23,4.0,ENE,31.1,42.6,N/A,,Clear,70,2012-10-29 16:55:00
1:15 PM,60.8,59.0,94,29.22,5.0,East,32.2,47.2,N/A,,Clear,80,2012-10-29 17:15:00
1:35 PM,62.6,59.0,88,29.20,5.0,East,31.1,57.5,N/A,,Clear,80,2012-10-29 17:35:00
1:55 PM,62.6,59.0,88,29.17,5.0,East,36.8,51.8,N/A,,Clear,80,2012-10-29 17:55:00
2:15 PM,62.6,59.0,88,29.15,1.8,East,39.1,59.8,N/A,Rain,Light Rain,80,2012-10-29 18:15:00
2:35 PM,60.8,59.0,94,29.13,2.5,East,31.1,56.4,N/A,,Clear,80,2012-10-29 18:35:00
2:55 PM,62.6,59.0,88,29.13,5.0,East,29.9,56.4,N/A,Rain,Light Rain,80,2012-10-29 18:55:00
3:15 PM,62.6,59.0,88,29.13,5.0,East,31.1,59.8,N/A,,Clear,90,2012-10-29 19:15:00
3:35 PM,64.4,59.0,83,29.13,4.0,East,36.8,54.1,N/A,,Clear,90,2012-10-29 19:35:00
3:55 PM,62.6,60.8,94,29.12,1.2,East,38.0,56.4,N/A,Rain,Light Rain,90,2012-10-29 19:55:00
4:15 PM,62.6,60.8,94,29.13,5.0,East,38.0,62.1,N/A,,Clear,100,2012-10-29 20:15:00
4:35 PM,64.4,60.8,88,29.15,3.0,East,41.4,61.0,N/A,Rain,Light Rain,100,2012-10-29 20:35:00
4:55 PM,62.6,60.8,94,29.16,4.0,East,33.4,49.5,N/A,,Clear,100,2012-10-29 20:55:00
5:15 PM,62.6,60.8,94,29.17,3.0,East,38.0,55.2,N/A,,Clear,100,2012-10-29 21:15:00
5:35 PM,64.4,60.8,88,29.18,4.0,East,35.7,54.1,N/A,,Clear,100,2012-10-29 21:35:00
5:55 PM,64.4,60.8,88,29.19,5.0,East,28.8,47.2,N/A,,Clear,100,2012-10-29 21:55:00
6:15 PM,62.6,60.8,94,29.20,5.0,East,29.9,52.9,N/A,,Clear,100,2012-10-29 22:15:00
6:35 PM,62.6,60.8,94,29.20,5.0,East,28.8,47.2,N/A,,Clear,100,2012-10-29 22:35:00
6:55 PM,62.6,60.8,94,29.20,3.0,East,28.8,39.1,N/A,Rain,Light Rain,100,2012-10-29 22:55:00
7:15 PM,62.6,62.6,100,29.19,1.0,East,26.5,40.3,0.04,Rain,Heavy Rain,100,2012-10-29 23:15:00
7:35 PM,62.6,62.6,100,29.20,1.2,ESE,31.1,51.8,0.09,Rain,Light Rain,110,2012-10-29 23:35:00
7:55 PM,62.6,60.8,94,29.24,0.8,ESE,19.6,34.5,0.35,Rain,Heavy Rain,120,2012-10-29 23:55:00
8:15 PM,60.8,59.0,94,29.24,2.5,SE,19.6,33.4,N/A,,Clear,130,2012-10-30 00:15:00
8:35 PM,60.8,60.8,100,29.22,4.0,East,15.0,24.2,0.02,Rain,Light Rain,100,2012-10-30 00:35:00
11:35 PM,62.6,59.0,88,29.31,5.0,SE,15.0,21.9,N/A,,Clear,130,2012-10-30 03:35:00
11:55 PM,62.6,59.0,88,29.32,6.0,SE,16.1,23.0,N/A,,Clear,130,2012-10-30 03:55:00